TimeCDT,TemperatureF,Dew PointF,Humidity,Sea Level PressureIn,VisibilityMPH,Wind Direction,Wind SpeedMPH,Gust SpeedMPH,PrecipitationIn,Events,Conditions,WindDirDegrees,DateUTC
12:53 AM,55.9,35.1,45,29.93,9.0,SSE,6.9,-,N/A,,Clear,160,2013-03-10 06:53:00
1:53 AM,57.0,36.0,45,29.91,8.0,SSE,10.4,-,N/A,,Overcast,160,2013-03-10 07:53:00
3:53 AM,57.2,37.4,48,29.89,10.0,South,12.7,-,N/A,,Partly Cloudy,170,2013-03-10 08:53:00
4:53 AM,59.0,39.9,49,29.88,10.0,South,11.5,18.4,N/A,,Clear,170,2013-03-10 09:53:00
5:53 AM,59.0,39.9,49,29.87,10.0,South,15.0,20.7,N/A,,Clear,170,2013-03-10 10:53:00
6:53 AM,60.8,39.2,45,29.88,10.0,South,15.0,25.3,N/A,,Clear,170,2013-03-10 11:53:00
7:53 AM,59.0,41.0,51,29.88,10.0,South,15.0,21.9,N/A,,Partly Cloudy,170,2013-03-10 12:53:00
8:53 AM,59.0,41.0,51,29.86,9.0,SSE,12.7,26.5,N/A,,Clear,160,2013-03-10 13:53:00
9:53 AM,62.1,43.0,50,29.85,10.0,SSE,18.4,28.8,N/A,,Clear,160,2013-03-10 14:53:00
10:53 AM,63.0,43.0,48,29.84,10.0,South,21.9,34.5,N/A,,Clear,170,2013-03-10 15:53:00
11:53 AM,63.0,43.0,48,29.80,10.0,SSE,16.1,24.2,N/A,,Clear,160,2013-03-10 16:53:00
12:53 PM,66.0,45.0,47,29.80,10.0,South,26.5,38.0,N/A,,Partly Cloudy,170,2013-03-10 17:53:00
1:53 PM,64.9,45.0,48,29.76,10.0,South,20.7,31.1,N/A,,Clear,180,2013-03-10 18:53:00
2:53 PM,66.0,46.9,50,29.73,10.0,South,19.6,31.1,N/A,,Overcast,170,2013-03-10 19:53:00
3:53 PM,60.1,53.1,78,29.71,4.0,South,19.6,29.9,0.03,Rain,Rain,170,2013-03-10 20:53:00
4:18 PM,57.2,53.6,88,29.75,4.0,SW,16.1,24.2,0.03,Rain,Rain,230,2013-03-10 21:18:00
4:51 PM,53.6,51.8,94,29.76,5.0,West,17.3,25.3,0.05,Rain,Light Rain,260,2013-03-10 21:51:00
4:53 PM,54.0,51.1,90,29.76,5.0,West,17.3,25.3,0.05,Rain,Light Rain,260,2013-03-10 21:53:00
5:02 PM,51.8,50.0,94,29.79,2.5,West,17.3,-,0.02,Rain,Rain,270,2013-03-10 22:02:00
5:10 PM,51.8,48.2,88,29.78,1.5,West,12.7,21.9,0.06,Rain,Heavy Rain,280,2013-03-10 22:10:00
5:14 PM,51.8,48.2,88,29.78,2.0,West,11.5,-,0.08,Rain,Rain,280,2013-03-10 22:14:00
5:25 PM,51.8,48.2,88,29.79,4.0,WNW,11.5,-,0.10,Rain,Light Rain,290,2013-03-10 22:25:00
5:53 PM,51.1,48.9,92,29.77,3.0,NW,3.5,-,0.14,Rain,Rain,310,2013-03-10 22:53:00
6:07 PM,51.8,48.2,88,29.80,1.8,West,3.5,-,0.02,Rain,Heavy Rain,280,2013-03-10 23:07:00
6:25 PM,50.0,48.2,94,29.78,3.0,ESE,3.5,-,0.10,Rain,Light Rain,110,2013-03-10 23:25:00
6:53 PM,50.0,48.9,96,29.76,5.0,ESE,6.9,-,0.14,Rain,Rain,120,2013-03-10 23:53:00
7:53 PM,50.0,48.9,96,29.78,10.0,SSE,6.9,-,0.04,Rain,Light Rain,150,2013-03-11 00:53:00
8:53 PM,50.0,48.9,96,29.77,10.0,SSE,4.6,-,0.00,,Overcast,160,2013-03-11 01:53:00
9:43 PM,50.0,48.2,94,29.78,10.0,South,8.1,-,N/A,,Overcast,170,2013-03-11 02:43:00
9:53 PM,50.0,48.9,96,29.78,10.0,South,6.9,-,N/A,,Overcast,170,2013-03-11 02:53:00
10:34 PM,50.0,48.2,94,29.77,10.0,South,4.6,-,N/A,,Overcast,190,2013-03-11 03:34:00
10:49 PM,51.8,48.2,88,29.78,10.0,South,5.8,-,N/A,,Overcast,180,2013-03-11 03:49:00
10:53 PM,51.1,48.9,92,29.78,10.0,South,5.8,-,N/A,,Overcast,180,2013-03-11 03:53:00
11:53 PM,51.1,50.0,96,29.78,10.0,SW,13.8,19.6,N/A,,Overcast,220,2013-03-11 04:53:00
12:18 AM,51.8,48.2,88,29.76,10.0,SSW,6.9,-,N/A,,Mostly Cloudy,210,2013-03-11 05:18:00
12:33 AM,51.8,48.2,88,29.76,10.0,SSW,10.4,-,N/A,,Mostly Cloudy,210,2013-03-11 05:33:00
12:53 AM,51.1,48.9,92,29.75,10.0,SSW,9.2,-,N/A,,Mostly Cloudy,210,2013-03-11 05:53:00